FW5697 Weather Reports


time (UTC)temp
F
wind
direction
speed
knots
gust
knots
rain 1hr
in
rain 24hr
in
rain mn
in
humidity
%
barometer
mb
20260504204541 78 96 0.0 3.5 0.00 0.00 0.00 37 1014.2
20260504203029 78 171 0.9 5.2 0.00 0.00 0.00 33 1014.4
20260504201529 79 189 0.9 4.3 0.00 0.00 0.00 34 1014.5
20260504200028 79 232 0.9 3.5 0.00 0.00 0.00 33 1014.7
20260504194530 79 215 0.9 4.3 0.00 0.00 0.00 35 1014.9
20260504193030 78 140 0.9 3.5 0.00 0.00 0.00 34 1015.0
20260504191529 77 151 0.9 5.2 0.00 0.00 0.00 34 1015.2
20260504190028 77 84 0.9 5.2 0.00 0.00 0.00 33 1015.5
20260504184531 77 218 0.9 3.5 0.00 0.00 0.00 36 1015.7
20260504183027 75 0 0.9 3.5 0.00 0.00 0.00 35 1015.9
20260504181531 75 0 1.7 3.5 0.00 0.00 0.00 34 1016.1
20260504180028 75 213 0.0 1.7 0.00 0.00 0.00 37 1016.2
20260504174528 74 190 0.9 5.2 0.00 0.00 0.00 37 1016.4
20260504173030 73 0 0.0 3.5 0.00 0.00 0.00 39 1016.5
20260504171530 73 31 0.9 5.2 0.00 0.00 0.00 39 1016.7
20260504081528 46 0 0.0 0.0 0.00 0.00 0.00 92 1017.5
20260504044541 50 0 0.0 0.0 0.00 0.00 0.00 86 1018.4
20260504043030 50 0 0.0 0.0 0.00 0.00 0.00 86 1018.4
20260504041530 50 0 0.0 0.0 0.00 0.00 0.00 85 1018.3
20260504040032 51 0 0.0 0.0 0.00 0.00 0.00 84 1018.3
20260504034530 51 0 0.0 0.0 0.00 0.00 0.00 84 1018.4
20260504033030 52 0 0.0 0.9 0.00 0.00 0.00 83 1018.4
20260504031531 52 0 0.0 0.9 0.00 0.00 0.00 81 1018.2
20260504030028 53 0 0.0 0.0 0.00 0.00 0.00 79 1018.2
20260504024530 54 0 0.0 0.0 0.00 0.00 0.00 79 1018.1
20260504023030 54 0 0.0 0.9 0.00 0.00 0.00 76 1017.8
20260504021529 55 0 0.0 0.0 0.00 0.00 0.00 75 1017.6
20260504020028 55 0 0.0 0.0 0.00 0.00 0.00 74 1017.4
20260504014528 56 0 0.0 2.6 0.00 0.00 0.00 71 1017.2
20260504013036 58 0 0.0 0.0 0.00 0.00 0.00 69 1017.1
20260504011528 59 0 0.0 0.0 0.00 0.00 0.00 66 1016.9
20260504010029 61 0 0.0 0.0 0.00 0.00 0.00 62 1016.8
20260504004528 62 0 0.0 0.0 0.00 0.00 0.00 54 1016.6
20260504003032 64 0 0.0 0.0 0.00 0.00 0.00 52 1016.4
20260504001530 65 0 0.0 0.0 0.00 0.00 0.00 46 1016.4
20260504000027 67 0 0.0 0.9 0.00 0.00 0.00 46 1016.4
20260503234528 68 0 0.0 2.6 0.00 0.00 0.00 41 1016.3
20260503233035 70 341 0.0 4.3 0.00 0.00 0.00 38 1016.2
20260503231528 70 318 0.0 1.7 0.00 0.00 0.00 37 1016.3
20260503230032 71 0 0.0 2.6 0.00 0.00 0.00 37 1016.3
20260503224531 72 184 0.9 3.5 0.00 0.00 0.00 34 1016.5
20260503223028 72 42 0.9 7.0 0.00 0.00 0.00 33 1016.4
20260503221528 72 144 0.9 4.3 0.00 0.00 0.00 32 1016.5
20260503220028 72 0 0.0 5.2 0.00 0.00 0.00 31 1016.6
20260503214534 72 181 1.7 5.2 0.00 0.00 0.00 32 1016.7
20260503213029 72 235 0.0 7.0 0.00 0.00 0.00 32 1016.8
20260503211533 72 306 0.9 4.3 0.00 0.00 0.00 31 1016.8
20260503210030 72 137 1.7 7.8 0.00 0.00 0.00 32 1017.0